TimeCDT,TemperatureF,Dew PointF,Humidity,Sea Level PressureIn,VisibilityMPH,Wind Direction,Wind SpeedMPH,Gust SpeedMPH,PrecipitationIn,Events,Conditions,WindDirDegrees,DateUTC
12:53 AM,36.0,30.9,82,30.31,10.0,SW,8.1,-,N/A,,Overcast,220,2013-03-20 05:53:00
1:53 AM,37.0,30.0,76,30.34,10.0,WSW,8.1,-,N/A,,Overcast,250,2013-03-20 06:53:00
2:53 AM,39.0,33.1,79,30.36,10.0,NNW,8.1,-,N/A,,Overcast,330,2013-03-20 07:53:00
3:53 AM,37.0,25.0,62,30.38,10.0,NNE,13.8,-,N/A,,Overcast,20,2013-03-20 08:53:00
4:53 AM,34.0,23.0,64,30.41,10.0,North,11.5,-,N/A,,Overcast,10,2013-03-20 09:53:00
5:53 AM,28.9,21.9,75,30.43,10.0,North,9.2,-,N/A,,Mostly Cloudy,360,2013-03-20 10:53:00
6:53 AM,26.1,19.9,78,30.45,10.0,North,6.9,-,N/A,,Clear,10,2013-03-20 11:53:00
7:53 AM,25.0,19.0,78,30.46,10.0,NNW,4.6,-,N/A,,Clear,340,2013-03-20 12:53:00
8:53 AM,28.0,18.0,66,30.47,10.0,North,10.4,-,N/A,,Clear,350,2013-03-20 13:53:00
9:53 AM,30.9,15.1,52,30.48,10.0,North,12.7,-,N/A,,Clear,350,2013-03-20 14:53:00
10:53 AM,33.1,14.0,46,30.47,10.0,North,8.1,-,N/A,,Clear,350,2013-03-20 15:53:00
11:53 AM,36.0,15.1,43,30.44,10.0,NNE,5.8,-,N/A,,Clear,30,2013-03-20 16:53:00
12:53 PM,37.0,14.0,39,30.41,10.0,Variable,3.5,-,N/A,,Clear,0,2013-03-20 17:53:00
1:53 PM,42.1,15.1,34,30.36,10.0,NNW,5.8,-,N/A,,Clear,330,2013-03-20 18:53:00
2:53 PM,43.0,14.0,31,30.30,10.0,Calm,Calm,-,N/A,,Clear,0,2013-03-20 19:53:00
3:53 PM,45.0,15.1,30,30.26,10.0,WNW,4.6,-,N/A,,Clear,290,2013-03-20 20:53:00
4:53 PM,45.0,15.1,30,30.21,10.0,Calm,Calm,-,N/A,,Clear,0,2013-03-20 21:53:00
5:53 PM,46.0,16.0,30,30.18,10.0,Variable,3.5,-,N/A,,Clear,0,2013-03-20 22:53:00
6:53 PM,44.1,17.1,34,30.18,10.0,Calm,Calm,-,N/A,,Clear,0,2013-03-20 23:53:00
7:53 PM,43.0,17.1,35,30.16,10.0,East,6.9,-,N/A,,Clear,100,2013-03-21 00:53:00
8:53 PM,39.9,18.0,41,30.12,10.0,East,9.2,-,N/A,,Clear,100,2013-03-21 01:53:00
9:53 PM,39.0,17.1,41,30.10,10.0,ESE,9.2,-,N/A,,Clear,110,2013-03-21 02:53:00
10:53 PM,37.9,17.1,43,30.08,10.0,ESE,10.4,-,N/A,,Clear,110,2013-03-21 03:53:00
11:53 PM,37.0,16.0,42,30.06,10.0,ESE,12.7,-,N/A,,Clear,110,2013-03-21 04:53:00